Regional Weather Roundup
Issued by NWS Northern Indiana

Home | Current Version | Previous Version | Graphics & Text | Print | Product List | Glossary On
Versions: 1 2 3 4 5 6 7 8 9 10 11 12 13 14 15 16 17 18 19 20 21 22 23 24 25 26 27 28 29 30 31 32 33 34 35 36 37 38 39 40 41 42 43 44 45 46 47 48 49 50
000
ASUS43 KIWX 241810
RWRIWX

KIWX WEATHER ROUNDUP
NATIONAL WEATHER SERVICE NORTHERN INDIANA
200 PM EDT WED AUG 24 2016

NOTE: "FAIR" INDICATES FEW OR NO CLOUDS BELOW 12,000 FEET WITH NO
SIGNIFICANT WEATHER AND/OR OBSTRUCTIONS TO VISIBILITY.

* THESE STATIONS ARE NOT UNDER NWS QUALITY CONTROL. THEY ALSO MAY NOT
  REPORT WEATHER SUCH AS PRECIPITATION OR FOG.

INZ001>027-241900-
NORTHERN INDIANA

CITY           SKY/WX    TMP DP  RH WIND       PRES   REMARKS
GARY*          CLOUDY    77  73  88 S8        29.96F
VALPARAISO     PTSUNNY   75  71  87 S17       29.99F
6HR MIN TEMP:  70; 6HR MAX TEMP:  75; 6HR PCP:  0.22;

MICHIGAN CITY*   N/A    N/A N/A N/A MISG        N/A
LAPORTE*       CLOUDY   N/A N/A N/A S12G17    29.99F
                                      6HR PCP:  0.08;

KNOX*          CLOUDY    72  59  64 S9        30.00F
SOUTH BEND     LGT RAIN  74  73  97 S13       29.99F
6HR MIN TEMP:  69; 6HR MAX TEMP:  75; 6HR PCP:  0.03;

ELKHART*       LGT RAIN  75  72  88 S14       30.01F
GOSHEN         RAIN      76  70  82 SW18G24   30.03F
6HR MIN TEMP:  72; 6HR MAX TEMP:  78; 6HR PCP:  0.01;

MONTICELLO*    RAIN      73  69  87 SW3       30.01F
6HR MIN TEMP:  69; 6HR MAX TEMP:  74; 6HR PCP:  0.01;

LOGANSPORT*    LGT RAIN  73  72  94 S8        30.03F
ROCHESTER*     HVY RAIN  75  75 100 S5        30.04F
WARSAW*        HVY RAIN  73  72  94 S5        30.05S
ANGOLA*        MOSUNNY   79  72  78 SW13      30.04F
FORT WAYNE     LGT RAIN  79  71  76 S15       30.06F
6HR MIN TEMP:  68; 6HR MAX TEMP:  81; 6HR PCP: TRACE;

HUNTINGTON*    DRIZZLE  N/A N/A N/A S7        30.05F
PERU/GRISSOM   PTSUNNY   76  74  95 S9        30.01F
6HR MIN TEMP:  71; 6HR MAX TEMP:  77; 6HR PCP:  0.05;

MARION*        CLOUDY    77  71  82 S12       30.06F
6HR MIN TEMP:  51; 6HR MAX TEMP:  90;


$$
INZ028>050-241900-
CENTRAL INDIANA

CITY           SKY/WX    TMP DP  RH WIND       PRES   REMARKS
LAFAYETTE      HVY RAIN  77  74  90 W9        30.01F VSB 3/4
6HR MIN TEMP:  70; 6HR MAX TEMP:  80; 6HR PCP:  0.44;

KOKOMO*        CLOUDY    79  70  73 S14       30.03F
6HR MIN TEMP:  70; 6HR MAX TEMP:  79; 6HR PCP:  0.04;

MUNCIE*        CLOUDY    79  72  79 S10       30.08F
6HR MIN TEMP:  71; 6HR MAX TEMP:  80; 6HR PCP: TRACE;

INDIANAPOLIS   PTSUNNY   85  74  69 S13       30.04F
6HR MIN TEMP:  70; 6HR MAX TEMP:  85;


$$
MIZ043>046-050>051-056>058-064>065-071>073-077>080-241900-
SOUTHWEST LOWER MICHIGAN

CITY           SKY/WX    TMP DP  RH WIND       PRES   REMARKS
BATTLE CREEK   CLOUDY    75  72  90 S16       30.01F
6HR MIN TEMP:  65; 6HR MAX TEMP:  75; 6HR PCP:  0.05;

BENTON HARBOR  LGT RAIN  76  71  85 S17G26    29.93F
6HR MIN TEMP:  71; 6HR MAX TEMP:  78; 6HR PCP: TRACE;

COLDWATER*     CLOUDY    79  71  78 S7G16     30.02F
6HR MIN TEMP:  65; 6HR MAX TEMP:  79;

HILLSDALE*     CLOUDY    78  71  77 S12       30.05F
6HR MIN TEMP:  51; 6HR MAX TEMP:  84;

HOLLAND        CLOUDY    78  71  79 SW9       29.98F
6HR MIN TEMP:  72; 6HR MAX TEMP:  78; 6HR PCP:  0.08;

GRAND RAPIDS   CLOUDY    77  69  76 S13       29.99S
6HR MIN TEMP:  67; 6HR MAX TEMP:  78; 6HR PCP: TRACE;

KALAMAZOO      CLOUDY    79  70  74 S16G22    29.99F
6HR MIN TEMP:  68; 6HR MAX TEMP:  79; 6HR PCP:  0.01;

STURGIS*       CLOUDY    78  71  77 SW16      30.01F
6HR MIN TEMP:  68; 6HR MAX TEMP:  79; 6HR PCP:  0.01;

THREE RIVERS*  CLOUDY    78  71  79 SW15G28   30.01F
6HR MIN TEMP:  68; 6HR MAX TEMP:  79;


$$
OHZ001>008-015>018-024>025-241900-
NORTHWEST OHIO

CITY           SKY/WX    TMP DP  RH WIND       PRES   REMARKS
WAUSEON*       FAIR      84  72  65 SW15      30.06F
DEFIANCE       PTSUNNY   82  70  66 S13       30.06F
6HR MIN TEMP:  67; 6HR MAX TEMP:  83;

FINDLAY        PTSUNNY   85  69  58 S17       30.09F
6HR MIN TEMP:  66; 6HR MAX TEMP:  85;

TOLEDO EXPRESS PTSUNNY   82  71  69 S10       30.06F
6HR MIN TEMP:  62; 6HR MAX TEMP:  82;

TOLEDO METCALF CLOUDY    83  70  64 S16G22    30.08F
6HR MIN TEMP:  64; 6HR MAX TEMP:  85;

LIMA           CLOUDY    81  72  74 SW10      30.11F
6HR MIN TEMP:  65; 6HR MAX TEMP:  82;


$$
AND FOR LAKE MICHIGAN COASTAL AND OPEN LAKE BUOY OBSERVATIONS

STATION/POSITION TEMP    WIND        PRES    VSBY  WAVE
                 AIR SEA DIR/SP/G                  HT/PER
                 (F)     (DEG/KT/KT) (MB)    (MI)  (FT/S)
CALUMET HARBOR    73     160/  9/ 14 1014.4F
MICHIGAN CITY     72     150/ 10/ 13   N/A
BURNS HARBOR      73     180/ 10/ 18 1015.9F
SAINT JOSEPH      76     190/  8/ 17 1014.2F
SOUTH LAKE BUOY   74 74  180/ 14/ 17 1013.1F         4/ 6
4 MI NW BRIDGMAN  74 74  180/ 17/ 23 1013.4F         3/ 4
MICHIGAN CITY     75 74  200/ 17/ 21   N/A           2/ 3

$$
&&




USA.gov is the U.S. government's official web portal to all federal, state and local government web resources and services.